Location: Carr Mill
(33.2054°N, 85.9439°W)
Time: 16:51:24
(UTC+00:00)

ISS - Pass Details

Date: 25 June 2021
Orbit: 419 x 421 km, 51.6° (Epoch: 02 August)

Event Time Altitude Azimuth Distance (km) Brightness Sun altitude
Exits shadow 08:25:43 11° 123° (ESE) 1,424 -1.0 -21.9°
Drops below altitude 10° 08:26:36 10° 107° (ESE) 1,492 -0.7 -21.8°
Sets 08:29:59 0° 71° (ENE) 2,360 1.0 -21.3°
